| time (UTC) | temp C | wind direction | speed KPH | gust KPH | rain 1hr cm | rain 24hr cm | rain mn cm | humidity % | barometer mb |
| 20260901203520 | 22 | 214 | 6.4 | 12.9 | 0.00 | 0.05 | 0.00 | 29 | 1027.5 |
| 20260901202518 | 22 | 268 | 11.3 | 17.7 | 0.00 | 0.05 | 0.00 | 29 | 1027.6 |
| 20260901201518 | 22 | 337 | 8.0 | 17.7 | 0.00 | 0.05 | 0.00 | 30 | 1027.7 |
| 20260901200521 | 22 | 30 | 6.4 | 14.5 | 0.00 | 0.05 | 0.00 | 30 | 1027.8 |
| 20260901195521 | 22 | 35 | 6.4 | 11.3 | 0.00 | 0.05 | 0.00 | 30 | 1028.0 |
| 20260901194518 | 22 | 25 | 8.0 | 16.1 | 0.00 | 0.05 | 0.00 | 32 | 1028.0 |
| 20260901193521 | 22 | 202 | 3.2 | 8.0 | 0.00 | 0.05 | 0.00 | 33 | 1028.0 |
| 20260901192519 | 22 | 218 | 11.3 | 20.9 | 0.00 | 0.05 | 0.00 | 33 | 1028.1 |
| 20260901191521 | 21 | 121 | 6.4 | 11.3 | 0.00 | 0.05 | 0.00 | 36 | 1028.4 |
| 20260901190518 | 21 | 186 | 11.3 | 20.9 | 0.00 | 0.05 | 0.00 | 37 | 1028.4 |
| 20260901185542 | 21 | 153 | 8.0 | 12.9 | 0.00 | 0.05 | 0.00 | 38 | 1028.6 |
| 20260901184522 | 20 | 197 | 4.8 | 9.7 | 0.00 | 0.05 | 0.00 | 39 | 1028.7 |
| 20260901183522 | 20 | 171 | 3.2 | 9.7 | 0.00 | 0.05 | 0.00 | 39 | 1028.8 |
| 20260901182516 | 20 | 63 | 4.8 | 8.0 | 0.00 | 0.05 | 0.00 | 42 | 1028.9 |
| 20260901181517 | 20 | 230 | 6.4 | 14.5 | 0.00 | 0.05 | 0.00 | 41 | 1028.9 |
| 20260901180543 | 20 | 179 | 3.2 | 11.3 | 0.00 | 0.05 | 0.00 | 41 | 1029.1 |
| 20260901175523 | 18 | 218 | 6.4 | 14.5 | 0.00 | 0.05 | 0.00 | 44 | 1029.0 |
| 20260901174517 | 18 | 220 | 9.7 | 16.1 | 0.00 | 0.05 | 0.00 | 45 | 1029.1 |
| 20260901173517 | 19 | 235 | 9.7 | 16.1 | 0.00 | 0.05 | 0.00 | 46 | 1029.1 |
| 20260901172518 | 20 | 237 | 11.3 | 17.7 | 0.00 | 0.05 | 0.00 | 44 | 1029.2 |
| 20260901171518 | 20 | 230 | 11.3 | 19.3 | 0.00 | 0.05 | 0.00 | 45 | 1029.3 |
| 20260901170538 | 20 | 231 | 12.9 | 19.3 | 0.00 | 0.05 | 0.00 | 44 | 1029.3 |
| 20260901165518 | 20 | 235 | 11.3 | 20.9 | 0.00 | 0.05 | 0.00 | 46 | 1029.3 |
| 20260901164518 | 20 | 230 | 11.3 | 19.3 | 0.00 | 0.05 | 0.00 | 47 | 1029.4 |
| 20260901163518 | 19 | 212 | 14.5 | 22.5 | 0.00 | 0.05 | 0.00 | 49 | 1029.4 |
| 20260901162519 | 18 | 223 | 12.9 | 20.9 | 0.00 | 0.05 | 0.00 | 51 | 1029.4 |
| 20260901161519 | 18 | 229 | 11.3 | 19.3 | 0.00 | 0.05 | 0.00 | 52 | 1029.5 |
| 20260901160539 | 18 | 230 | 14.5 | 22.5 | 0.00 | 0.05 | 0.00 | 53 | 1029.4 |
| 20260901155539 | 17 | 234 | 11.3 | 17.7 | 0.00 | 0.05 | 0.00 | 55 | 1029.4 |
| 20260901154536 | 17 | 223 | 12.9 | 17.7 | 0.00 | 0.05 | 0.00 | 56 | 1029.3 |
| 20260901153530 | 16 | 199 | 12.9 | 16.1 | 0.00 | 0.05 | 0.00 | 60 | 1029.4 |
| 20260901152530 | 15 | 201 | 12.9 | 14.5 | 0.00 | 0.05 | 0.00 | 66 | 1029.5 |
| 20260901151530 | -17 | 200 | 12.9 | 12.9 | 0.00 | 0.05 | 0.00 | 1029.5 | |
| 20260901070107 | 14 | 190 | 14.5 | 14.5 | 0.00 | 0.05 | 0.00 | 65 | 1028.8 |
| 20260901065107 | 14 | 187 | 14.5 | 14.5 | 0.00 | 0.05 | 0.00 | 61 | 1028.7 |
| 20260901064107 | 13 | 199 | 11.3 | 12.9 | 0.00 | 0.05 | 0.00 | 66 | 1028.7 |
| 20260901063107 | 14 | 197 | 12.9 | 14.5 | 0.00 | 0.05 | 0.00 | 64 | 1028.7 |
| 20260901062108 | 14 | 185 | 9.7 | 11.3 | 0.00 | 0.05 | 0.00 | 66 | 1028.7 |
| 20260901061148 | 14 | 180 | 14.5 | 16.1 | 0.00 | 0.05 | 0.00 | 64 | 1028.8 |
| 20260901060148 | 15 | 174 | 14.5 | 17.7 | 0.00 | 0.05 | 0.00 | 62 | 1028.8 |
| 20260901055108 | 14 | 162 | 12.9 | 14.5 | 0.00 | 0.05 | 0.05 | 67 | 1028.7 |
| 20260901054108 | 14 | 179 | 11.3 | 11.3 | 0.00 | 0.05 | 0.05 | 66 | 1028.8 |
| 20260901053109 | 13 | 188 | 11.3 | 17.7 | 0.00 | 0.05 | 0.05 | 68 | 1028.9 |
| 20260901052109 | 13 | 167 | 11.3 | 12.9 | 0.00 | 0.05 | 0.05 | 74 | 1028.9 |
| 20260901051109 | 13 | 179 | 8.0 | 9.7 | 0.00 | 0.05 | 0.05 | 77 | 1028.8 |
| 20260901050109 | 13 | 177 | 8.0 | 9.7 | 0.00 | 0.05 | 0.05 | 78 | 1029.0 |
| 20260901045109 | 13 | 205 | 9.7 | 11.3 | 0.00 | 0.05 | 0.05 | 78 | 1029.1 |
| 20260901044017 | 13 | 213 | 8.0 | 11.3 | 0.00 | 0.05 | 0.05 | 77 | 1029.1 |
| 20260901043018 | 13 | 175 | 11.3 | 14.5 | 0.00 | 0.05 | 0.05 | 74 | 1029.1 |
| 20260901042018 | 13 | 168 | 9.7 | 11.3 | 0.00 | 0.05 | 0.05 | 76 | 1029.0 |
| 20260901041018 | 13 | 152 | 8.0 | 9.7 | 0.00 | 0.05 | 0.05 | 75 | 1028.9 |
| 20260901040018 | 13 | 146 | 6.4 | 9.7 | 0.00 | 0.05 | 0.05 | 78 | 1029.0 |
| 20260901035018 | 14 | 149 | 8.0 | 9.7 | 0.00 | 0.05 | 0.05 | 77 | 1029.0 |
| 20260901034019 | 14 | 153 | 6.4 | 8.0 | 0.00 | 0.05 | 0.05 | 77 | 1028.9 |
| 20260901033030 | 14 | 178 | 8.0 | 12.9 | 0.00 | 0.05 | 0.05 | 75 | 1028.8 |
| 20260901032028 | 13 | 205 | 4.8 | 6.4 | 0.00 | 0.05 | 0.05 | 75 | 1029.0 |
| 20260901031028 | 13 | 190 | 4.8 | 8.0 | 0.00 | 0.05 | 0.05 | 81 | 1029.1 |
| 20260901030019 | 12 | 204 | 6.4 | 11.3 | 0.00 | 0.05 | 0.05 | 85 | 1029.2 |
| 20260901025028 | 13 | 190 | 6.4 | 8.0 | 0.00 | 0.05 | 0.05 | 83 | 1029.1 |
| 20260901024028 | 13 | 353 | 3.2 | 8.0 | 0.00 | 0.05 | 0.05 | 81 | 1028.7 |
| 20260901023020 | 14 | 36 | 6.4 | 11.3 | 0.00 | 0.05 | 0.05 | 78 | 1028.7 |
| 20260901022020 | 15 | 25 | 9.7 | 14.5 | 0.05 | 0.05 | 0.05 | 77 | 1028.9 |
| 20260901021029 | 15 | 114 | 1.6 | 3.2 | 0.05 | 0.05 | 0.05 | 72 | 1028.8 |
| 20260901020049 | 15 | 182 | 3.2 | 6.4 | 0.05 | 0.05 | 0.05 | 76 | 1028.6 |
| 20260901015020 | 15 | 187 | 6.4 | 9.7 | 0.05 | 0.05 | 0.05 | 73 | 1028.3 |
| 20260901014020 | 16 | 191 | 9.7 | 14.5 | 0.05 | 0.05 | 0.05 | 69 | 1028.3 |
| 20260901013021 | 16 | 199 | 6.4 | 12.9 | 0.05 | 0.05 | 0.05 | 72 | 1028.4 |
| 20260901012030 | 17 | 197 | 4.8 | 6.4 | 0.00 | 0.00 | 0.00 | 62 | 1028.3 |
| 20260901011030 | 17 | 189 | 4.8 | 6.4 | 0.00 | 0.00 | 0.00 | 61 | 1028.2 |
| 20260901010030 | 17 | 292 | 4.8 | 8.0 | 0.00 | 0.00 | 0.00 | 61 | 1028.2 |
| 20260901005022 | 17 | 250 | 6.4 | 9.7 | 0.00 | 0.00 | 0.00 | 62 | 1028.0 |
| 20260901004022 | 17 | 215 | 11.3 | 16.1 | 0.00 | 0.00 | 0.00 | 58 | 1027.7 |
| 20260901003039 | 18 | 193 | 14.5 | 17.7 | 0.00 | 0.00 | 0.00 | 55 | 1027.4 |
| 20260901002019 | 18 | 187 | 16.1 | 22.5 | 0.00 | 0.00 | 0.00 | 54 | 1027.3 |
| 20260901001059 | 18 | 187 | 17.7 | 24.1 | 0.00 | 0.00 | 0.00 | 52 | 1027.3 |
| 20260901000017 | 19 | 213 | 16.1 | 19.3 | 0.00 | 0.00 | 0.00 | 53 | 1027.3 |
| 20260831235020 | 20 | 189 | 17.7 | 24.1 | 0.00 | 0.00 | 0.00 | 48 | 1027.3 |
| 20260831234020 | 20 | 193 | 17.7 | 24.1 | 0.00 | 0.00 | 0.00 | 48 | 1027.2 |
| 20260831233021 | 20 | 189 | 17.7 | 24.1 | 0.00 | 0.00 | 0.00 | 47 | 1027.1 |
| 20260831232017 | 20 | 185 | 14.5 | 20.9 | 0.00 | 0.00 | 0.00 | 47 | 1027.1 |
| 20260831231018 | 21 | 185 | 12.9 | 19.3 | 0.00 | 0.00 | 0.00 | 45 | 1027.1 |
| 20260831230041 | 21 | 175 | 16.1 | 22.5 | 0.00 | 0.00 | 0.00 | 45 | 1027.2 |
| 20260831225038 | 21 | 173 | 12.9 | 22.5 | 0.00 | 0.00 | 0.00 | 44 | 1027.4 |
| 20260831224018 | 21 | 181 | 14.5 | 22.5 | 0.00 | 0.00 | 0.00 | 43 | 1027.6 |
| 20260831223019 | 21 | 178 | 17.7 | 29.0 | 0.00 | 0.00 | 0.00 | 44 | 1027.7 |
| 20260831222017 | 21 | 183 | 19.3 | 29.0 | 0.00 | 0.00 | 0.00 | 44 | 1027.8 |
| 20260831221019 | 21 | 173 | 19.3 | 29.0 | 0.00 | 0.00 | 0.00 | 42 | 1027.9 |
| 20260831220019 | 20 | 169 | 14.5 | 22.5 | 0.00 | 0.00 | 0.00 | 42 | 1028.1 |
| 20260831215019 | 21 | 184 | 19.3 | 27.4 | 0.00 | 0.00 | 0.00 | 46 | 1028.3 |
| 20260831214017 | 21 | 200 | 19.3 | 29.0 | 0.00 | 0.00 | 0.00 | 40 | 1028.4 |
| 20260831213017 | 21 | 249 | 11.3 | 20.9 | 0.00 | 0.00 | 0.00 | 35 | 1028.4 |
| 20260831212020 | 21 | 269 | 16.1 | 22.5 | 0.00 | 0.00 | 0.00 | 33 | 1028.3 |
| 20260831211040 | 21 | 271 | 6.4 | 12.9 | 0.00 | 0.00 | 0.00 | 38 | 1028.5 |
| 20260831210018 | 21 | 42 | 6.4 | 11.3 | 0.00 | 0.00 | 0.00 | 39 | 1028.3 |
| 20260831205019 | 21 | 358 | 6.4 | 12.9 | 0.00 | 0.00 | 0.00 | 38 | 1028.4 |
| 20260831204020 | 22 | 80 | 4.8 | 11.3 | 0.00 | 0.00 | 0.00 | 38 | 1028.3 |